This is the latest recevied weather packets stored in our database for station/object N2PUI. If no packets are shown the sender has not sent any weather packets the latest 10 day(s).
| Time | Temp. | Humidity | Pressure | Rain* | Wind** | Luminosity | Snow |
|---|---|---|---|---|---|---|---|
| 1777931852 | 22.22° C | 33% | 1005.9 hPa | 0 mm | - | 268 W/m² | - |
| 1777931549 | 22.78° C | 33% | 1005.8 hPa | 0 mm | - | 294 W/m² | - |
| 1777931245 | 22.78° C | 34% | 1005.9 hPa | 0 mm | - | 300 W/m² | - |
| 1777930941 | 22.78° C | 33% | 1005.8 hPa | 0 mm | - | 305 W/m² | - |
| 1777930638 | 22.22° C | 33% | 1006 hPa | 0 mm | - | 302 W/m² | - |
| 1777930335 | 22.22° C | 35% | 1006 hPa | 0 mm | - | 276 W/m² | - |
| 1777930032 | 21.67° C | 33% | 1006 hPa | 0 mm | - | 280 W/m² | - |
| 1777929728 | 21.67° C | 37% | 1006 hPa | 0 mm | - | 353 W/m² | - |
| 1777929426 | 21.67° C | 35% | 1005.8 hPa | 0 mm | - | 344 W/m² | - |
| 1777929121 | 21.11° C | 36% | 1006.1 hPa | 0 mm | - | 150 W/m² | - |
| 1777928814 | 21.67° C | 35% | 1006.1 hPa | 0 mm | - | 115 W/m² | - |
| 1777928510 | 22.22° C | 35% | 1006.2 hPa | 0 mm | - | 123 W/m² | - |
| 1777928208 | 22.22° C | 35% | 1006.2 hPa | 0 mm | - | 475 W/m² | - |
| 1777927905 | 21.67° C | 36% | 1006.2 hPa | 0 mm | - | 468 W/m² | - |
| 1777927604 | 21.67° C | 35% | 1006.2 hPa | 0 mm | - | 496 W/m² | - |
| 1777927302 | 21.67° C | 37% | 1006.6 hPa | 0 mm | - | 235 W/m² | - |
| 1777927000 | 21.11° C | 38% | 1006.4 hPa | 0 mm | - | 514 W/m² | - |
| 1777926698 | 21.67° C | 35% | 1006.4 hPa | 0 mm | - | 329 W/m² | - |
| 1777926397 | 21.67° C | 35% | 1006.7 hPa | 0 mm | - | 579 W/m² | - |
| 1777926095 | 21.67° C | 37% | 1006.8 hPa | 0 mm | - | 589 W/m² | - |
| 1777925791 | 21.67° C | 36% | 1006.7 hPa | 0 mm | - | 633 W/m² | - |
| 1777925489 | 21.67° C | 36% | 1006.8 hPa | 0 mm | - | 667 W/m² | - |
| 1777925186 | 22.22° C | 36% | 1006.7 hPa | 0 mm | - | 133 W/m² | - |
| 1777924883 | 22.78° C | 35% | 1006.9 hPa | 0 mm | - | 209 W/m² | - |
| 1777924579 | 22.78° C | 34% | 1006.8 hPa | 0 mm | - | 700 W/m² | - |
* Rain latest hour (hover to see other rain measurements)
** Current wind speed in m/s (hover to see current wind gust speed)